User: anonymous   Login
Location: Unspecified
(0.0000°N, 0.0000°E)
Time: 04:14:38
(UTC+00:00)
Language:

NPP - Orbit

View from above orbital plane
View from above orbital plane
View from above satellite
View from above satellite

Ground track
Ground track

The orbit is defined by the following mean orbital elements,

1 37849U          26145.57350528 +.00000000 +00000-0 +51888-4 0 00001
2 37849  98.7947  86.6052 0002578  52.1763 307.9646 14.19512010    09
Epoch (UTC): 25 May 2026 13:45:50
Eccentricity: 0.0002578
inclination: 98.7947°
perigee height: 825 km
apogee height: 829 km
right ascension of ascending node: 86.6052°
argument of perigee: 52.1763°
revolutions per day: 14.19512010
mean anomaly at epoch: 307.9646°

The dashed part of the orbit path shows where the satellite is in the earth's shadow,  

DLR